Weather History for Newcastle, WY

Change the Weather History Date:

Sunday, July 21, 2013

  Actual Average (KCUT) Record (KCUT)
Temperature  
Mean Temperature 73 °F 66 °F  
Max Temperature 86 °F 80 °F 96 °F (1960)
Min Temperature 60 °F 52 °F 38 °F (1958)
Degree Days  
Heating Degree Days 0 2  
Month to date heating degree days 46  
Since 1 June heating degree days 266  
Since 1 July heating degree days 46  
Cooling Degree Days 8 3  
Month to date cooling degree days 53  
Year to date cooling degree days 79  
Since 1 June cooling degree days 78  
Growing Degree Days 23 (Base 50)    
Moisture  
Dew Point 53 °F    
Average Humidity 53    
Maximum Humidity 82    
Minimum Humidity 27    
Precipitation  
Precipitation 0.04 in 0.08 in 1.57 in (2000)
Month to date precipitation 1.69  
Year to date precipitation 12.02  
Sea Level Pressure  
Sea Level Pressure 29.93 in    
Wind  
Wind Speed 7 mph (SE)    
Max Wind Speed 20 mph    
Max Gust Speed 23 mph    
Visibility 10 miles    
Events Rain , Thunderstorm    
T = Trace of Precipitation, MM = Missing Value Source: NWS Daily Summary

Daily Weather History Graph

Daily Weather History Graph

Search for Another Location

Airport:

Trip Planner

Search our weather history database for the weather conditions in past years. The results will help you decide how hot, cold, wet, or windy it might be!

Date:

Astronomy

Jul. 21, 2013 Rise Set
Actual Time 5:34 AM MDT 8:32 PM MDT
Civil Twilight 5:00 AM MDT 9:06 PM MDT
Nautical Twilight 4:16 AM MDT 9:49 PM MDT
Astronomical Twilight 3:25 AM MDT 10:40 PM MDT
Moon 7:30 PM MDT (7/21) 4:24 AM MDT (7/21)
Length of Visible Light 16h 05m
Length of Day
14h 57m
Waxing Gibbous, 98% of the Moon is Illuminated
Jul 21
Waxing Gibbous
Jul 22
Full
Jul 29
Last Quarter
Aug 6
New
Aug 14
First Quarter

Hourly Weather History & Observations

Time (MDT) Temp. Heat Index Dew Point Humidity Pressure Visibility Wind Dir Wind Speed Gust Speed Precip Events Conditions
12:15 AM 68.0 °F - 55.4 °F 64% 29.98 in 10.0 mi SSW 3.5 mph - N/A   Clear
12:35 AM 64.4 °F - 55.4 °F 73% 29.98 in 10.0 mi West 8.1 mph - N/A   Clear
12:55 AM 66.2 °F - 55.4 °F 68% 29.98 in 10.0 mi NW 4.6 mph - N/A   Clear
1:15 AM 66.2 °F - 55.4 °F 68% 29.97 in 10.0 mi Calm Calm - N/A   Clear
1:35 AM 68.0 °F - 51.8 °F 56% 29.97 in 10.0 mi North - - N/A Thunderstorm Thunderstorm
1:55 AM 69.8 °F - 50.0 °F 49% 29.96 in 10.0 mi North - - N/A   Scattered Clouds
2:15 AM 71.6 °F - 50.0 °F 46% 29.96 in 10.0 mi North - - N/A   Mostly Cloudy
2:35 AM 71.6 °F - 51.8 °F 50% 29.95 in 10.0 mi South 6.9 mph - N/A   Mostly Cloudy
2:55 AM 64.4 °F - 55.4 °F 73% 29.96 in 10.0 mi South 5.8 mph - N/A   Scattered Clouds
3:15 AM 62.6 °F - 57.2 °F 82% 29.95 in 10.0 mi North - - N/A   Scattered Clouds
3:35 AM 68.0 °F - 53.6 °F 60% 29.94 in 10.0 mi North - - N/A Thunderstorm Thunderstorm
3:55 AM 64.4 °F - 55.4 °F 73% 29.95 in 10.0 mi South 4.6 mph - 0.02 in Rain , Thunderstorm Thunderstorms and Rain
4:15 AM 62.6 °F - 55.4 °F 77% 29.94 in 10.0 mi North - - N/A   Mostly Cloudy
4:35 AM 62.6 °F - 55.4 °F 77% 29.92 in 10.0 mi North - - N/A Thunderstorm Scattered Clouds
4:55 AM 64.4 °F - 53.6 °F 68% 29.92 in 10.0 mi North - - N/A   Scattered Clouds
5:15 AM 60.8 °F - 55.4 °F 82% 29.93 in 10.0 mi Calm Calm - N/A   Scattered Clouds
5:35 AM 64.4 °F - 51.8 °F 64% 29.92 in 10.0 mi North - - N/A   Scattered Clouds
5:55 AM 60.8 °F - 53.6 °F 77% 29.93 in 10.0 mi Calm Calm - N/A   Scattered Clouds
6:15 AM 60.8 °F - 53.6 °F 77% 29.94 in 10.0 mi South 9.2 mph - N/A   Clear
6:35 AM 60.8 °F - 55.4 °F 82% 29.95 in 10.0 mi South 6.9 mph - N/A   Clear
6:55 AM 62.6 °F - 55.4 °F 77% 29.96 in 10.0 mi SE 9.2 mph - N/A   Clear
7:15 AM 62.6 °F - 57.2 °F 82% 29.97 in 10.0 mi North - - N/A   Clear
7:35 AM 64.4 °F - 57.2 °F 77% 29.97 in 10.0 mi North - - N/A   Clear
7:55 AM 66.2 °F - 55.4 °F 68% 29.98 in 10.0 mi SE 19.6 mph - N/A   Clear
8:15 AM 64.4 °F - 55.4 °F 73% 29.99 in 10.0 mi North - - N/A   Scattered Clouds
8:35 AM 64.4 °F - 57.2 °F 77% 29.99 in 10.0 mi North - - N/A   Mostly Cloudy
8:55 AM 68.0 °F - 55.4 °F 64% 29.99 in 10.0 mi ESE 18.4 mph - N/A   Overcast
9:15 AM 68.0 °F - 55.4 °F 64% 29.99 in 10.0 mi North - - N/A   Scattered Clouds
9:35 AM 68.0 °F - 55.4 °F 64% 29.99 in 10.0 mi ESE 16.1 mph 20.7 mph N/A   Scattered Clouds
9:55 AM 68.0 °F - 55.4 °F 64% 29.98 in 10.0 mi North - - N/A   Scattered Clouds
10:15 AM 69.8 °F - 55.4 °F 60% 29.98 in 10.0 mi North - - N/A   Scattered Clouds
10:35 AM 69.8 °F - 55.4 °F 60% 29.97 in 10.0 mi SE 18.4 mph - N/A   Scattered Clouds
10:55 AM 71.6 °F - 55.4 °F 57% 29.98 in 10.0 mi North - - N/A   Scattered Clouds
11:15 AM 71.6 °F - 55.4 °F 57% 29.97 in 10.0 mi SE 19.6 mph - N/A   Scattered Clouds
12:15 PM 75.2 °F - 55.4 °F 50% 29.95 in 10.0 mi SSE 12.7 mph - N/A   Clear
12:35 PM 77.0 °F - 55.4 °F 47% 29.94 in 10.0 mi North - - N/A   Clear
12:55 PM 78.8 °F - 55.4 °F 44% 29.93 in 10.0 mi SE 6.9 mph 18.4 mph N/A   Clear
1:15 PM 78.8 °F - 55.4 °F 44% 29.92 in 10.0 mi SSE 9.2 mph - N/A   Clear
1:35 PM 80.6 °F 80.3 °F 53.6 °F 39% 29.92 in 10.0 mi SSE 12.7 mph - N/A   Clear
1:55 PM 80.6 °F 80.3 °F 53.6 °F 39% 29.91 in 10.0 mi ESE 11.5 mph - N/A   Clear
2:15 PM 82.4 °F 81.4 °F 53.6 °F 37% 29.90 in 10.0 mi SSE 8.1 mph - N/A   Clear
2:35 PM 82.4 °F 81.4 °F 53.6 °F 37% 29.90 in 10.0 mi SE 9.2 mph - N/A   Clear
2:55 PM 82.4 °F 81.4 °F 53.6 °F 37% 29.89 in 10.0 mi ESE 8.1 mph 16.1 mph N/A   Clear
3:15 PM 84.2 °F - 51.8 °F 33% 29.89 in 10.0 mi ESE 8.1 mph - N/A   Clear
3:35 PM 84.2 °F - 51.8 °F 33% 29.88 in 10.0 mi North - - N/A   Clear
3:55 PM 86.0 °F - 51.8 °F 31% 29.88 in 10.0 mi SE 8.1 mph - N/A   Clear
4:15 PM 86.0 °F - 50.0 °F 29% 29.87 in 10.0 mi North - - N/A   Clear
4:35 PM 86.0 °F - 50.0 °F 29% 29.87 in 10.0 mi North - - N/A   Clear
4:55 PM 86.0 °F - 50.0 °F 29% 29.87 in 10.0 mi Calm Calm - N/A   Clear
5:15 PM 86.0 °F - 50.0 °F 29% 29.86 in 10.0 mi SE 4.6 mph - N/A   Clear
5:35 PM 84.2 °F - 46.4 °F 27% 29.86 in 10.0 mi SSE 5.8 mph - N/A   Clear
5:55 PM 82.4 °F - 50.0 °F 32% 29.86 in 10.0 mi South 5.8 mph - N/A   Clear
6:15 PM 80.6 °F 80.3 °F 53.6 °F 39% 29.86 in 10.0 mi South 3.5 mph - N/A   Clear
6:35 PM 82.4 °F - 50.0 °F 32% 29.85 in 10.0 mi South 5.8 mph - N/A   Clear
6:55 PM 80.6 °F 80.3 °F 53.6 °F 39% 29.85 in 10.0 mi North - - N/A   Clear
7:15 PM 80.6 °F 80.3 °F 53.6 °F 39% 29.86 in 10.0 mi North - - N/A   Clear
7:35 PM 82.4 °F - 51.8 °F 35% 29.86 in 10.0 mi North - - N/A   Clear
7:55 PM 82.4 °F 81.7 °F 55.4 °F 39% 29.86 in 10.0 mi North - - N/A   Clear
8:15 PM 80.6 °F - 51.8 °F 37% 29.88 in 10.0 mi North - - N/A   Clear
8:35 PM 78.8 °F - 51.8 °F 39% 29.88 in 10.0 mi East 4.6 mph - N/A   Clear
8:55 PM 75.2 °F - 53.6 °F 47% 29.89 in 10.0 mi East 5.8 mph - N/A   Clear
9:15 PM 73.4 °F - 51.8 °F 47% 29.90 in 10.0 mi NE 3.5 mph - N/A   Clear
9:35 PM 73.4 °F - 51.8 °F 47% 29.91 in 10.0 mi NNE 6.9 mph - N/A   Clear
9:55 PM 71.6 °F - 51.8 °F 50% 29.91 in 10.0 mi NE 5.8 mph - N/A   Clear
10:15 PM 71.6 °F - 51.8 °F 50% 29.91 in 10.0 mi North 6.9 mph - N/A   Clear
10:35 PM 77.0 °F - 42.8 °F 29% 29.93 in 10.0 mi North 18.4 mph 23.0 mph N/A   Scattered Clouds
10:55 PM 64.4 °F - 53.6 °F 68% 29.93 in 10.0 mi North - - 0.02 in   Scattered Clouds
11:15 PM 69.8 °F - 48.2 °F 46% 29.93 in 10.0 mi North - - N/A   Clear
11:35 PM 71.6 °F - 44.6 °F 38% 29.92 in 10.0 mi North - - N/A   Clear
11:55 PM 73.4 °F - 42.8 °F 33% 29.92 in 10.0 mi NE 17.3 mph - N/A   Clear